Fort Riley, KS

4:22 PM CDT on August 28, 2016 (GMT -0500)
Marshall Army Air Field

Weather History for KFRI - January, 2014

Change the Weather History Date:

Friday, January 17, 2014

  Actual Average (KMHK) Record (KMHK)
Temperature  
Mean Temperature 30 °F 29 °F  
Max Temperature 39 °F 41 °F 58 °F (2015)
Min Temperature 21 °F 17 °F -5 °F (1997)
Degree Days  
Heating Degree Days 35 36  
Month to date heating degree days 627  
Since 1 July heating degree days 2768  
Moisture  
Dew Point 11 °F    
Average Humidity 47    
Maximum Humidity 63    
Minimum Humidity 34    
Precipitation  
Precipitation 0.00 in 0.03 in 0.04 in (2004)
Month to date precipitation 0.23  
Year to date precipitation 0.23  
Sea Level Pressure  
Sea Level Pressure 30.17 in    
Wind  
Wind Speed 8 mph (West)    
Max Wind Speed 14 mph    
Max Gust Speed 21 mph    
Visibility 10 miles    
Events      
T = Trace of Precipitation, MM = Missing Value Source: NWS Daily Summary

Daily Weather History Graph

Daily Weather History Graph

Search for Another Location

Airport or City:

Trip Planner

Search our weather history database for the weather conditions in past years. The results will help you decide how hot, cold, wet, or windy it might be!

Date:

Astronomy

Jan. 17, 2014 Rise Set
Actual Time 7:43 AM CST 5:31 PM CST
Civil Twilight 7:14 AM CST 6:00 PM CST
Nautical Twilight 6:41 AM CST 6:32 PM CST
Astronomical Twilight 6:09 AM CST 7:04 PM CST
Moon 7:17 PM CST (1/17) 8:13 AM CST (1/17)
Length of Visible Light 10h 45m
Length of Day
9h 47m
Full, 98% of the Moon is Illuminated
Jan 17
Full
Jan 23
Last Quarter
Jan 30
New
Feb 6
First Quarter
Feb 14
Full

Hourly Weather History & Observations

Time (CST) Temp. Windchill Dew Point Humidity Pressure Visibility Wind Dir Wind Speed Gust Speed Precip Events Conditions
12:58 AM 25.7 °F 17.1 °F 5.7 °F 43% 30.18 in 10.0 mi NW 8.1 mph - N/A   Clear
1:58 AM 24.6 °F 15.8 °F 5.0 °F 43% 30.19 in 10.0 mi NW 8.1 mph - N/A   Clear
2:58 AM 23.9 °F 13.5 °F 6.8 °F 48% 30.20 in 10.0 mi NW 10.4 mph - N/A   Clear
3:58 AM 23.0 °F 12.4 °F 6.6 °F 50% 30.21 in 10.0 mi NW 10.4 mph - N/A   Clear
4:58 AM 21.9 °F 14.5 °F 6.6 °F 52% 30.21 in 10.0 mi WSW 5.8 mph - N/A   Clear
5:58 AM 21.0 °F 16.2 °F 6.3 °F 53% 30.21 in 10.0 mi WSW 3.5 mph - N/A   Clear
6:58 AM 21.7 °F 11.5 °F 7.5 °F 54% 30.22 in 10.0 mi WNW 9.2 mph - N/A   Clear
7:58 AM 21.9 °F 11.0 °F 7.2 °F 53% 30.25 in 10.0 mi WNW 10.4 mph - N/A   Clear
8:58 AM 24.4 °F 13.5 °F 8.1 °F 50% 30.25 in 10.0 mi WNW 11.5 mph 20.7 mph N/A   Clear
9:58 AM 27.1 °F 15.9 °F 9.5 °F 48% 30.27 in 10.0 mi NW 13.8 mph 19.6 mph N/A   Clear
10:58 AM 30.2 °F 20.2 °F 11.1 °F 45% 30.27 in 10.0 mi WNW 12.7 mph - N/A   Clear
11:58 AM 32.9 °F 23.7 °F 10.0 °F 39% 30.23 in 10.0 mi NW 12.7 mph - N/A   Clear
12:58 PM 34.9 °F 27.1 °F 12.9 °F 40% 30.20 in 10.0 mi NW 10.4 mph - N/A   Clear
1:58 PM 37.2 °F 30.0 °F 12.0 °F 36% 30.18 in 10.0 mi WNW 10.4 mph - N/A   Clear
2:58 PM 38.7 °F 32.9 °F 13.6 °F 36% 30.17 in 10.0 mi West 8.1 mph - N/A   Clear
3:58 PM 39.7 °F 34.3 °F 13.3 °F 34% 30.16 in 10.0 mi West 8.1 mph - N/A   Clear
4:58 PM 37.9 °F 31.5 °F 15.4 °F 40% 30.15 in 10.0 mi WSW 9.2 mph - N/A   Clear
5:58 PM 30.6 °F 27.1 °F 14.9 °F 52% 30.14 in 10.0 mi South 3.5 mph - N/A   Clear
6:58 PM 29.7 °F 26.1 °F 14.5 °F 53% 30.10 in 10.0 mi SSW 3.5 mph - N/A   Clear
7:58 PM 28.4 °F 21.2 °F 16.0 °F 60% 30.08 in 10.0 mi South 6.9 mph - N/A   Mostly Cloudy
8:58 PM 28.8 °F - 17.6 °F 63% 30.08 in 10.0 mi North 1.2 mph - N/A   Overcast
9:58 PM 31.6 °F 26.0 °F 17.8 °F 57% 30.06 in 10.0 mi SSW 5.8 mph - N/A   Overcast
10:58 PM 35.2 °F 29.5 °F 15.8 °F 45% 30.01 in 10.0 mi SSW 6.9 mph - N/A   Overcast
11:58 PM 35.4 °F 28.4 °F 15.6 °F 44% 29.96 in 10.0 mi SW 9.2 mph - N/A   Overcast